TimeHST,TemperatureF,Dew PointF,Humidity,Sea Level PressureIn,VisibilityMPH,Wind Direction,Wind SpeedMPH,Gust SpeedMPH,PrecipitationIn,Events,Conditions,WindDirDegrees,DateUTC
12:54 AM,68.0,64.9,90,30.04,10.0,Calm,Calm,-,N/A,,Clear,0,2011-12-13 10:54:00
1:54 AM,68.0,64.0,87,30.03,10.0,Calm,Calm,-,N/A,,Scattered Clouds,0,2011-12-13 11:54:00
2:46 AM,68.0,62.6,83,30.01,10.0,East,3.5,-,N/A,,Mostly Cloudy,80,2011-12-13 12:46:00
2:54 AM,69.1,64.0,84,30.02,10.0,East,4.6,-,N/A,,Mostly Cloudy,80,2011-12-13 12:54:00
3:02 AM,69.8,64.4,83,30.00,10.0,ENE,6.9,-,N/A,,Mostly Cloudy,70,2011-12-13 13:02:00
3:16 AM,71.6,64.4,78,29.99,10.0,ENE,4.6,-,N/A,,Scattered Clouds,70,2011-12-13 13:16:00
3:54 AM,72.0,66.0,81,30.01,10.0,ENE,4.6,-,N/A,,Overcast,60,2011-12-13 13:54:00
4:54 AM,71.1,64.9,81,29.99,10.0,WNW,8.1,-,N/A,,Clear,290,2011-12-13 14:54:00
5:54 AM,70.0,64.0,81,30.00,10.0,SE,6.9,-,N/A,,Partly Cloudy,130,2011-12-13 15:54:00
6:54 AM,69.1,63.0,81,30.02,10.0,SSE,4.6,-,N/A,,Partly Cloudy,160,2011-12-13 16:54:00
7:54 AM,73.0,66.0,79,30.03,10.0,North,3.5,-,N/A,,Clear,10,2011-12-13 17:54:00
8:54 AM,73.9,66.9,79,30.05,10.0,NE,6.9,-,N/A,,Partly Cloudy,40,2011-12-13 18:54:00
9:54 AM,75.0,68.0,79,30.05,10.0,NE,11.5,-,N/A,,Partly Cloudy,40,2011-12-13 19:54:00
10:54 AM,75.0,68.0,79,30.04,10.0,NE,16.1,-,N/A,,Mostly Cloudy,50,2011-12-13 20:54:00
11:54 AM,78.1,68.0,71,30.03,10.0,NE,9.2,-,N/A,,Mostly Cloudy,40,2011-12-13 21:54:00
12:54 PM,78.1,68.0,71,30.00,10.0,NNE,16.1,-,N/A,,Mostly Cloudy,30,2011-12-13 22:54:00
1:54 PM,81.0,66.0,60,29.98,10.0,East,5.8,-,N/A,,Scattered Clouds,90,2011-12-13 23:54:00
2:54 PM,79.0,66.0,64,29.97,10.0,ENE,12.7,-,N/A,,Mostly Cloudy,60,2011-12-14 00:54:00
3:54 PM,78.1,66.0,66,29.98,10.0,Calm,Calm,-,N/A,,Scattered Clouds,0,2011-12-14 01:54:00
4:54 PM,75.9,64.0,67,29.99,10.0,ENE,10.4,-,N/A,,Scattered Clouds,60,2011-12-14 02:54:00
5:54 PM,75.9,62.1,62,29.99,10.0,NE,12.7,-,N/A,,Scattered Clouds,50,2011-12-14 03:54:00
6:54 PM,73.9,64.0,71,30.02,10.0,Calm,Calm,-,N/A,,Clear,0,2011-12-14 04:54:00
7:54 PM,73.0,64.9,76,30.05,10.0,East,6.9,-,N/A,,Clear,80,2011-12-14 05:54:00
8:54 PM,70.0,63.0,78,30.06,10.0,Calm,Calm,-,N/A,,Clear,0,2011-12-14 06:54:00
9:54 PM,71.1,61.0,70,30.07,10.0,NE,5.8,-,N/A,,Clear,50,2011-12-14 07:54:00
10:54 PM,66.9,59.0,76,30.06,10.0,East,3.5,-,N/A,,Clear,90,2011-12-14 08:54:00
11:54 PM,66.9,60.1,79,30.05,10.0,Calm,Calm,-,N/A,,Clear,0,2011-12-14 09:54:00